TimeCDT,TemperatureF,Dew PointF,Humidity,Sea Level PressureIn,VisibilityMPH,Wind Direction,Wind SpeedMPH,Gust SpeedMPH,PrecipitationIn,Events,Conditions,WindDirDegrees,DateUTC
12:53 AM,73.0,55.0,53,29.83,10.0,SSE,17.3,21.9,N/A,,Clear,160,2013-06-08 05:53:00
1:53 AM,72.0,54.0,53,29.81,10.0,SSE,12.7,-,N/A,,Clear,160,2013-06-08 06:53:00
2:53 AM,70.0,55.9,61,29.80,10.0,SSE,18.4,24.2,N/A,,Clear,160,2013-06-08 07:53:00
3:53 AM,68.0,59.0,73,29.77,10.0,SSE,16.1,-,N/A,,Clear,160,2013-06-08 08:53:00
4:53 AM,68.0,60.1,76,29.76,10.0,South,16.1,23.0,N/A,,Clear,170,2013-06-08 09:53:00
5:53 AM,66.9,59.0,76,29.76,10.0,ESE,11.5,-,N/A,,Clear,120,2013-06-08 10:53:00
6:53 AM,66.0,59.0,78,29.78,10.0,East,8.1,-,N/A,,Clear,100,2013-06-08 11:53:00
7:53 AM,66.9,60.1,79,29.78,10.0,ESE,11.5,-,N/A,,Clear,120,2013-06-08 12:53:00
8:53 AM,71.1,60.1,68,29.78,10.0,SSE,10.4,-,N/A,,Clear,160,2013-06-08 13:53:00
9:53 AM,77.0,55.9,48,29.78,10.0,SW,6.9,-,N/A,,Clear,220,2013-06-08 14:53:00
10:53 AM,82.9,53.1,36,29.76,10.0,WSW,8.1,-,N/A,,Clear,250,2013-06-08 15:53:00
11:53 AM,82.9,48.9,31,29.76,10.0,Calm,Calm,-,N/A,,Clear,0,2013-06-08 16:53:00
12:53 PM,88.0,46.9,24,29.74,10.0,North,4.6,-,N/A,,Clear,350,2013-06-08 17:53:00
1:53 PM,90.0,44.1,20,29.71,10.0,East,5.8,-,N/A,,Clear,80,2013-06-08 18:53:00
2:53 PM,93.0,42.1,17,29.68,10.0,ESE,10.4,-,N/A,,Clear,120,2013-06-08 19:53:00
3:53 PM,93.9,44.1,18,29.65,10.0,ENE,8.1,16.1,N/A,,Clear,60,2013-06-08 20:53:00
4:53 PM,97.0,46.0,18,29.62,10.0,East,8.1,-,N/A,,Clear,80,2013-06-08 21:53:00
5:53 PM,93.0,54.0,27,29.61,10.0,SSE,24.2,31.1,N/A,,Clear,150,2013-06-08 22:53:00
6:53 PM,90.0,57.9,34,29.61,10.0,SSE,17.3,29.9,N/A,,Clear,150,2013-06-08 23:53:00
7:53 PM,87.1,57.0,36,29.63,10.0,SSE,23.0,34.5,N/A,,Clear,150,2013-06-09 00:53:00
8:53 PM,82.9,59.0,44,29.64,10.0,SSE,18.4,28.8,N/A,,Clear,150,2013-06-09 01:53:00
9:53 PM,81.0,61.0,50,29.65,10.0,SSE,19.6,27.6,N/A,,Clear,160,2013-06-09 02:53:00
10:53 PM,79.0,62.1,56,29.66,10.0,SSE,19.6,28.8,N/A,,Clear,160,2013-06-09 03:53:00
11:53 PM,78.1,62.1,58,29.67,10.0,SSE,23.0,29.9,N/A,,Clear,160,2013-06-09 04:53:00